User: anonymous
Location: Charleston
(38.3500°N, 81.6330°W)
Time: 18:54:01
(UTC-04:00)
Language:

Cosmos 2228 - Orbit

View from above orbital plane
View from above orbital plane
View from above satellite
View from above satellite

Ground track
Ground track

The orbit data is extracted from the following two-line orbital elements,

1 22286U 92094A   14210.34534831  .00000681  00000-0  75146-4 0  3809
2 22286 082.5219 286.7968 0021242 020.6238 339.5831 14.85886251165874
Epoch (UTC): 29 July 2014 08:17:18
Eccentricity: 0.0021242
inclination: 82.5219°
perigee height: 596 km
apogee height: 625 km
right ascension of ascending node: 286.7968°
argument of perigee: 20.6238°
revolutions per day: 14.85886251
mean anomaly at epoch: 339.5831°
orbit number at epoch: 16587

The dashed part of the orbit path shows where the satellite is in the earth's shadow,  

DLR